Retour au catalogue

STARLINK-33913

ActifCommunicationsVLEO
NORAD 65215·PAYLOAD·🇺🇸 United States

Lancé Aug 14, 2025 depuis Cape Canaveral Space Force Station

Loading…

Prochains Passages (prochaines 24 heures)

TLE

FraisSource: CelesTrak SupGP

Époque: Sep 14, 2026, 21:34 UTC

1 65215C 25176T   26257.89909722 -.00009953  00000+0 -29409-3 0  2579
2 65215  53.1592 352.0779 0001145  79.5888 313.0922 15.34393908    11

Suivez STARLINK-33913 en temps réel avec AllMySat

Download on the App Store